{"data":{"norad_id":28446,"intl_designator":"2004-041A","name":"AMC-15","alt_names":[],"object_type":"PAYLOAD","status":"ACTIVE","operator":null,"country":"SES","launch_date":"2004-10-14","launch_site_code":"TYMSC","launch_vehicle":null,"mission":null,"orbit_class":"UNKNOWN","rcs_meters":22.4085,"size_class":null,"mass_kg":null,"dimensions":null,"purposes":["comms"],"wikipedia_slug":null,"has_3d_model":false,"image_url":null,"decayed_at":null,"tle_current":{"epoch":"2026-05-25T04:34:01.670304Z","epoch_age_seconds":54569,"freshness":"FRESH","line1":"1 28446U 04041A   26145.19029711 -.00000091  00000+0  00000+0 0  9990","line2":"2 28446   0.0236 308.2730 0002324 122.6149 135.3387  1.00272312 79077","mean_motion":1.00272312,"eccentricity":0.0002324,"inclination_deg":0.0236,"raan_deg":308.273,"arg_perigee_deg":122.6149,"mean_anomaly_deg":135.3387,"bstar":0,"rev_number":7907,"period_min":1436.0893563519,"perigee_km":35776.648175233,"apogee_km":35796.246273981,"semimajor_km":42164.584224607,"source":"CELESTRAK","updated_at":"2026-05-25T13:38:14.473085Z"}}}